Flag for Germany Weather past 2 weeks in Herne, North Rhine-Westphalia, Germany

Now
88 °F

Sunny.


Feels Like: 85 °F
Forecast: 56 / 69 °F
Wind: 15 mph from Southwest

Location: Dortmund / Wickede

Current Time: Aug 31, 2015 at 5:47:22 PM

Latest Report: Aug 31, 2015 at 5:20 PM


Visibility: 10 mi

Pressure: 29.77 "Hg

Humidity: 27%

Dew point: 50 °F

Location of HerneLocation

Historic Weather in Herne — Graph

°F

Herne temperature yesterday

Maximum temperature yesterday: 88 °F (at 2:20 PM)
Minimum temperature yesterday: 61 °F (at 5:20 AM)
Average temperature yesterday: 77 °F

Past Weeks' High & Low Weather Summary

 TemperatureHumidityPressure
High88 °F (Aug 30, 2:20 PM)94% (Aug 16, 5:20 PM)30.24 "Hg (Aug 16, 5:20 PM)
Low50 °F (Aug 19, 5:20 AM)26% (Aug 22, 4:50 PM)29.56 "Hg (Aug 24, 2:50 PM)
Average66 °F64%29.97 "Hg
* Reported Aug 16 4:20 PM — Aug 31 4:20 PM, Herne, Weather by CustomWeather, © 2015

Note: Actual official high and low records may vary slightly from our data, if they occured in-between our weather recording intervals... More about our weather records

Advertising

Herne weather history for previous 24 hours

 ConditionsComfort  
Time TempWeatherWind HumidityBarometerVisibility
4:20 PM
Mon, Aug 31
88 °FPassing clouds.13 mph35%29.77 "HgN/A
3:50 PM88 °FSunny.15 mph33%29.77 "Hg10 mi
3:20 PM86 °FPassing clouds.14 mph31%29.77 "HgN/A
2:50 PM86 °FPassing clouds.14 mph38%29.80 "HgN/A
2:20 PM86 °FPassing clouds.16 mph38%29.80 "HgN/A
1:50 PM86 °FSunny.13 mph38%29.80 "Hg10 mi
1:20 PM86 °FPassing clouds.10 mph35%29.83 "HgN/A
12:50 PM84 °FPassing clouds.9 mph40%29.83 "HgN/A
12:20 PM84 °FPassing clouds.7 mph40%29.83 "HgN/A
11:50 AM82 °FPassing clouds.8 mph40%29.83 "HgN/A
11:20 AM82 °FPassing clouds.7 mph42%29.86 "HgN/A
10:50 AM81 °FSunny.3 mph45%29.86 "Hg10 mi
10:20 AM79 °FSunny.2 mph65%29.86 "Hg10 mi
9:50 AM77 °FSunny.3 mph65%29.86 "Hg10 mi
9:20 AM73 °FClear.5 mph78%29.86 "Hg6 mi
8:50 AM72 °FClear.5 mph83%29.89 "Hg4 mi
8:20 AM72 °FClear.6 mph83%29.89 "Hg4 mi
7:50 AM70 °FFog.8 mph88%29.89 "Hg2 mi
7:20 AM68 °FFog.9 mph88%29.89 "Hg2 mi
6:50 AM68 °FClear.6 mph88%29.92 "Hg4 mi
6:20 AM68 °FPassing clouds.8 mph88%29.92 "Hg6 mi
5:50 AM68 °FPassing clouds.5 mph83%29.95 "HgN/A
5:20 AM70 °FClear.6 mph83%29.95 "Hg10 mi
10:50 PM
Sun, Aug 30
73 °FClear.2 mph78%29.98 "Hg10 mi
10:20 PM73 °FClear.3 mph78%29.98 "Hg10 mi
9:20 PM77 °FSunny.1 mph74%30.01 "Hg10 mi
8:50 PM77 °FSunny.1 mph69%29.98 "Hg10 mi
8:20 PM77 °FSunny.2 mph69%29.98 "Hg10 mi
7:50 PM79 °FSunny.3 mph65%29.98 "Hg10 mi
7:20 PM82 °FPassing clouds.5 mph58%29.98 "HgN/A
6:50 PM84 °FSunny.5 mph55%29.98 "Hg10 mi
6:20 PM86 °FPassing clouds.6 mph52%29.98 "HgN/A
5:50 PM86 °FPassing clouds.5 mph49%29.98 "HgN/A
5:20 PM86 °FSunny.7 mph49%29.98 "Hg10 mi
Weather by CustomWeather, © 2015

See weather overviewHow to use our weather pages